Location: Équennes
(49.7375°N, 1.9622°E)
Time: 18:10:31
(UTC+00:00)

Cosmos 2278 - Pass Details

Date: 27 September 2023
Orbit: 838 x 853 km, 71.1° (Epoch: 08 December)

Event Time Altitude Azimuth Distance (km) Brightness Sun altitude
Rises 19:56:00 0° 279° (W) 3,406 8.1 -22.2°
Reaches altitude 10° 19:59:59 10° 306° (NW) 2,478 7.2 -22.8°
Maximum altitude 20:02:34 13° 334° (NNW) 2,267 6.6 -23.1°
Drops below altitude 10° 20:05:09 10° 1° (N) 2,486 6.4 -23.5°
Sets 20:09:11 0° 28° (NNE) 3,428 6.9 -24.1°
